カタログに戻る

THOR ABLESTAR DEB

運用中LEO
NORAD 3932·DEBRIS·🇺🇸 United States

打ち上げ Jun 29, 1961 から Cape Canaveral Space Force Station

Loading…

次のパス (今後24時間)

TLE

最新Source: Space-Track

元期: Sep 14, 2026, 07:41 UTC

1 03932U 61015JG  26257.32016528  .00000210  00000-0  52107-3 0  9990
2 03932  65.7974 225.2408 0273309  74.4658 356.9741 13.26049185163620

AllMySatでTHOR ABLESTAR DEBをリアルタイム追跡

Download on the App Store